Location: Unspecified
(43.3830°N, 0.0000°E)
Time: 10:39:47
(UTC+00:00)

Explorer 7 - Pass Details

Date: 28 June 2019
Orbit: 485 x 680 km, 50.3° (Epoch: 16 July)

Event Time Altitude Azimuth Distance (km) Brightness Sun altitude
Rises 07:28:40 0° 254° (WSW) 2,683 9.8 31.0°
Reaches altitude 10° 07:30:52 10° 259° (W) 1,824 9.0 31.4°
Maximum altitude 07:34:58 56° 338° (NNW) 692 7.6 32.1°
Drops below altitude 10° 07:39:21 10° 57° (ENE) 1,954 10.6 32.9°
Sets 07:41:47 0° 62° (ENE) 2,894 11.3 33.4°
